Regional Weather Roundup
Issued by NWS Kansas City/Pleasant Hill, MO

Home | Current Version | Previous Version | Graphics & Text | Print | Product List | Glossary Off
Versions: 1 2 3 4 5 6 7 8 9 10 11 12 13 14 15 16 17 18 19 20 21 22 23 24 25 26 27

000
ASUS43 KEAX 271510
RWREAX

WEATHER ROUNDUP FOR EASTERN KANSAS AND NORTHWEST MISSOURI
NATIONAL WEATHER SERVICE KANSAS CITY/PLEASANT HILL MO
900 AM CST MON FEB 27 2017

KSZ040-057-103>105-MOZ028-029-037-043-271600-
...KANSAS CITY METROPOLITAN AREA...

CITY           SKY/WX    TMP DP  RH WIND       PRES   REMARKS
K.C. INTL      SUNNY     39  36  89 S7        30.04R WCI  34
K.C. DOWNTOWN  SUNNY     32  32 100 NE5       30.05S FOG     WCI  27
LEES SUMMIT    SUNNY     40  34  79 SE9       30.05R WCI  34
OLATHE - IXD   SUNNY     37  35  92 SE8       30.03S WCI  31
OLATHE - OJC   SUNNY     35  35 100 SE7       30.03S WCI  29
LAWRENCE       SUNNY     32  32 100 E8        30.03S FOG     WCI  25

$$

MOZ001>008-011>017-020>025-030>033-038>040-044>046-053-054-271600-
...NORTHERN AND CENTRAL MISSOURI...

CITY           SKY/WX    TMP DP  RH WIND       PRES   REMARKS
ST. JOSEPH     SUNNY     33  33 100 S8        30.04S FOG     WCI  26
MOSBY          FOG       32  32 100 S3        30.07R VSB 1/4
WARRENSBURG    SUNNY     36  36 100 SE6       30.07S WCI  31
WHITEMAN AFB   SUNNY     39  39 100 S6        30.06S WCI  35
CLINTON        SUNNY     37  37 100 E3        30.08R
SEDALIA        SUNNY     39  36  89 SE6       30.08S WCI  35
WARSAW         NOT AVBL
CHILLICOTHE      N/A     32  32 100 SE3       30.09R
KIRKSVILLE     SUNNY     37  36  96 S7        30.09R WCI  32

$$

MOZ041-047>049-056>058-063>065-088>090-097-271600-
...EASTERN AND SOUTHERN MISSOURI...

CITY           SKY/WX    TMP DP  RH WIND       PRES   REMARKS
ST. LOUIS INTL SUNNY     49  37  63 SE7       30.13R
SPIRIT OF STL  SUNNY     46  38  73 CALM      30.12S
COLUMBIA       SUNNY     42  36  79 SE8       30.09R
JEFFERSON CITY SUNNY     34  34 100 CALM      30.11R
ROLLA          SUNNY     45  39  79 S7        30.08R
OSAGE BEACH    SUNNY     40  33  76 SE6       30.10R
SPRINGFIELD    SUNNY     46  32  58 SE13      30.05R
BRANSON        SUNNY     45  32  61 SE8       30.07R
JOPLIN         SUNNY     46  35  65 SE7       30.04R
WEST PLAINS    SUNNY     46  40  79 SE6       30.10R

$$

IAZ060-094-KSZ022-034>040-054-083-096-NEZ052-066-093-271600-
...KANSAS...SOUTHEAST NEBRASKA AND IOWA...

CITY           SKY/WX    TMP DP  RH WIND       PRES   REMARKS
TOPEKA         FOG       32  32 100 E5        30.02S VSB 1/4 WCI  27
MANHATTAN      SUNNY     38  30  73 VRB3      29.98R
EMPORIA        SUNNY     32  32 100 SE7       29.99F WCI  26
CHANUTE        MOSUNNY   39  32  76 E9        30.02R WCI  33
WICHITA        CLOUDY    42  33  70 SE12      29.94S
OMAHA          MOSUNNY   32  25  75 S6        29.98S WCI  26
LINCOLN        SUNNY     29  23  78 CALM      29.99R
FALLS CITY     SUNNY     34  32  92 SE7       30.00S WCI  28
LAMONI         FOG       31  31 100 S8        30.04R VSB 1/4 WCI  23
DES MOINES     MOSUNNY   33  29  85 S8        30.04R WCI  26

$$





USA.gov is the U.S. government's official web portal to all federal, state and local government web resources and services.